Weather History for KRCM - December, 2013

Change the Weather History Date:

Thursday, December 19, 2013

  Actual Average (KSZL) Record (KSZL)
Temperature  
Mean Temperature 52 °F -  
Max Temperature 57 °F 37 °F 60 °F (1997)
Min Temperature 46 °F 20 °F 1 °F (1996)
Degree Days  
Heating Degree Days 14    
Growing Degree Days 2 (Base 50)    
Moisture  
Dew Point 43 °F    
Average Humidity 72    
Maximum Humidity 82    
Minimum Humidity 62    
Precipitation  
Precipitation 0.00 in - - ()
Sea Level Pressure  
Sea Level Pressure 29.75 in    
Wind  
Wind Speed 9 mph (SSE)    
Max Wind Speed 17 mph    
Max Gust Speed 25 mph    
Visibility 10 miles    
Events      
Averages and records for this station are not official NWS values.
T = Trace of Precipitation, MM = Missing Value Source: NWS Daily Summary

Daily Weather History Graph

Daily Weather History Graph

Search for Another Location

Airport or City:

Trip Planner

Search our weather history database for the weather conditions in past years. The results will help you decide how hot, cold, wet, or windy it might be!

Date:

Astronomy

Dec. 19, 2013 Rise Set
Actual Time 7:28 AM CST 4:56 PM CST
Civil Twilight 6:59 AM CST 5:26 PM CST
Nautical Twilight 6:25 AM CST 5:59 PM CST
Astronomical Twilight 5:53 AM CST 6:31 PM CST
Moon 7:21 PM CST (12/19) 8:49 AM CST (12/19)
Length of Visible Light 10h 27m
Length of Day
9h 27m
Waning Gibbous, 95% of the Moon is Illuminated
Dec 19
Waning Gibbous
Dec 25
Last Quarter
Jan 1
New
Jan 7
First Quarter
Jan 15
Full

Hourly Weather History & Observations

Time (CST) Temp. Windchill Dew Point Humidity Pressure Visibility Wind Dir Wind Speed Gust Speed Precip Events Conditions
12:15 AM 48.2 °F - 35.6 °F 62% 29.83 in 10.0 mi South 10.4 mph 16.1 mph N/A   Clear
12:35 AM 46.4 °F 41.9 °F 35.6 °F 66% 29.83 in 10.0 mi South 9.2 mph - N/A   Clear
12:55 AM 46.4 °F 41.9 °F 35.6 °F 66% 29.82 in 10.0 mi South 9.2 mph - N/A   Clear
1:15 AM 46.4 °F 42.4 °F 35.6 °F 66% 29.81 in 10.0 mi South 8.1 mph - N/A   Clear
1:35 AM 46.4 °F 41.9 °F 35.6 °F 66% 29.81 in 10.0 mi South 9.2 mph - N/A   Clear
1:55 AM 46.4 °F 41.9 °F 35.6 °F 66% 29.81 in 10.0 mi South 9.2 mph - N/A   Clear
2:15 AM 46.4 °F 41.9 °F 35.6 °F 66% 29.81 in 10.0 mi South 9.2 mph - N/A   Clear
2:35 AM 48.2 °F - 37.4 °F 66% 29.81 in 10.0 mi South 9.2 mph - N/A   Clear
2:55 AM 46.4 °F 41.9 °F 37.4 °F 71% 29.80 in 10.0 mi South 9.2 mph - N/A   Clear
3:15 AM 48.2 °F - 37.4 °F 66% 29.80 in 10.0 mi South 10.4 mph - N/A   Clear
3:35 AM 50.0 °F - 37.4 °F 62% 29.80 in 10.0 mi South 11.5 mph - N/A   Clear
3:55 AM 50.0 °F - 37.4 °F 62% 29.79 in 10.0 mi South 11.5 mph - N/A   Clear
4:15 AM 50.0 °F - 37.4 °F 62% 29.79 in 10.0 mi South 10.4 mph - N/A   Clear
4:35 AM 50.0 °F - 37.4 °F 62% 29.79 in 10.0 mi South 10.4 mph - N/A   Clear
4:55 AM 48.2 °F - 37.4 °F 66% 29.79 in 10.0 mi SSE 8.1 mph - N/A   Clear
5:15 AM 46.4 °F 42.4 °F 37.4 °F 71% 29.79 in 10.0 mi South 8.1 mph - N/A   Clear
5:35 AM 46.4 °F 42.9 °F 37.4 °F 71% 29.78 in 10.0 mi SSE 6.9 mph - N/A   Clear
5:55 AM 46.4 °F 42.4 °F 37.4 °F 71% 29.78 in 10.0 mi South 8.1 mph - N/A   Clear
6:15 AM 46.4 °F 42.4 °F 39.2 °F 76% 29.78 in 10.0 mi South 8.1 mph - N/A   Clear
6:35 AM 48.2 °F - 39.2 °F 71% 29.78 in 10.0 mi South 8.1 mph - N/A   Clear
6:55 AM 48.2 °F - 39.2 °F 71% 29.78 in 10.0 mi South 10.4 mph - N/A   Clear
7:15 AM 48.2 °F - 39.2 °F 71% 29.78 in 10.0 mi South 10.4 mph - N/A   Clear
7:35 AM 50.0 °F - 41.0 °F 71% 29.79 in 10.0 mi South 9.2 mph - N/A   Clear
7:55 AM 50.0 °F - 41.0 °F 71% 29.79 in 10.0 mi South 10.4 mph - N/A   Clear
8:15 AM 50.0 °F - 41.0 °F 71% 29.80 in 10.0 mi South 8.1 mph - N/A   Clear
8:35 AM 50.0 °F - 41.0 °F 71% 29.80 in 10.0 mi South 9.2 mph - N/A   Clear
8:55 AM 51.8 °F - 42.8 °F 71% 29.80 in 10.0 mi SSE 9.2 mph - N/A   Clear
9:15 AM 51.8 °F - 42.8 °F 71% 29.81 in 10.0 mi South 10.4 mph 16.1 mph N/A   Clear
9:35 AM 53.6 °F - 42.8 °F 67% 29.81 in 10.0 mi South 11.5 mph 18.4 mph N/A   Clear
9:55 AM 53.6 °F - 42.8 °F 67% 29.81 in 10.0 mi South 13.8 mph 21.9 mph N/A   Scattered Clouds
10:15 AM 55.4 °F - 44.6 °F 67% 29.82 in 10.0 mi SSW 13.8 mph 19.6 mph N/A   Mostly Cloudy
10:35 AM 55.4 °F - 44.6 °F 67% 29.82 in 10.0 mi South 15.0 mph 21.9 mph N/A   Overcast
10:55 AM 55.4 °F - 44.6 °F 67% 29.80 in 10.0 mi South 16.1 mph 23.0 mph N/A   Overcast
11:15 AM 57.2 °F - 46.4 °F 67% 29.80 in 10.0 mi South 16.1 mph 21.9 mph N/A   Mostly Cloudy
11:35 AM 55.4 °F - 46.4 °F 72% 29.78 in 10.0 mi South 15.0 mph 25.3 mph N/A   Overcast
11:55 AM 55.4 °F - 46.4 °F 72% 29.78 in 10.0 mi South 12.7 mph 23.0 mph N/A   Overcast
12:15 PM 55.4 °F - 46.4 °F 72% 29.76 in 10.0 mi South 17.3 mph - N/A   Overcast
12:35 PM 55.4 °F - 46.4 °F 72% 29.75 in 10.0 mi South 16.1 mph 21.9 mph N/A   Overcast
12:55 PM 55.4 °F - 46.4 °F 72% 29.73 in 10.0 mi South 15.0 mph 19.6 mph N/A   Overcast
1:15 PM 55.4 °F - 46.4 °F 72% 29.72 in 10.0 mi SSE 12.7 mph - N/A   Overcast
1:35 PM 55.4 °F - 46.4 °F 72% 29.71 in 10.0 mi SSE 11.5 mph - N/A   Overcast
1:55 PM 55.4 °F - 46.4 °F 72% 29.70 in 10.0 mi SSE 11.5 mph 16.1 mph N/A   Overcast
2:15 PM 55.4 °F - 46.4 °F 72% 29.69 in 10.0 mi SSE 9.2 mph - N/A   Overcast
2:35 PM 55.4 °F - 46.4 °F 72% 29.69 in 10.0 mi SSE 8.1 mph - N/A   Overcast
3:15 PM 55.4 °F - 46.4 °F 72% 29.68 in 10.0 mi South 10.4 mph - N/A   Overcast
3:35 PM 55.4 °F - 46.4 °F 72% 29.68 in 10.0 mi SSE 6.9 mph - N/A   Overcast
3:55 PM 55.4 °F - 46.4 °F 72% 29.68 in 10.0 mi SSE 6.9 mph - N/A   Overcast
4:15 PM 55.4 °F - 46.4 °F 72% 29.69 in 10.0 mi SSE 5.8 mph - N/A   Overcast
4:35 PM 53.6 °F - 46.4 °F 77% 29.69 in 10.0 mi SSE 5.8 mph - N/A   Overcast
4:55 PM 53.6 °F - 46.4 °F 77% 29.69 in 10.0 mi SSE 5.8 mph - N/A   Overcast
5:15 PM 53.6 °F - 46.4 °F 77% 29.69 in 10.0 mi SSE 5.8 mph - N/A   Overcast
5:35 PM 53.6 °F - 46.4 °F 77% 29.70 in 10.0 mi SSE 5.8 mph - N/A   Overcast
5:55 PM 53.6 °F - 46.4 °F 77% 29.70 in 10.0 mi SSE 4.6 mph - N/A   Overcast
6:15 PM 53.6 °F - 46.4 °F 77% 29.70 in 10.0 mi SSE 4.6 mph - N/A   Overcast
6:35 PM 53.6 °F - 46.4 °F 77% 29.69 in 10.0 mi SE 5.8 mph - N/A   Overcast
6:55 PM 53.6 °F - 48.2 °F 82% 29.69 in 10.0 mi SSE 6.9 mph - N/A   Overcast
7:15 PM 53.6 °F - 48.2 °F 82% 29.69 in 10.0 mi SSE 5.8 mph - N/A   Overcast
7:35 PM 53.6 °F - 46.4 °F 77% 29.69 in 10.0 mi SSE 5.8 mph - N/A   Overcast
7:55 PM 53.6 °F - 46.4 °F 77% 29.70 in 10.0 mi SSE 5.8 mph - N/A   Overcast
8:15 PM 53.6 °F - 48.2 °F 82% 29.69 in 10.0 mi SSE 5.8 mph - N/A   Overcast
8:35 PM 53.6 °F - 46.4 °F 77% 29.69 in 10.0 mi SSE 6.9 mph - N/A   Overcast
8:55 PM 53.6 °F - 46.4 °F 77% 29.69 in 10.0 mi SSE 5.8 mph - N/A   Overcast
9:15 PM 53.6 °F - 46.4 °F 77% 29.69 in 10.0 mi SE 4.6 mph - N/A   Overcast
10:15 PM 53.6 °F - 46.4 °F 77% 29.69 in 10.0 mi SSE 8.1 mph - N/A   Overcast
10:35 PM 53.6 °F - 46.4 °F 77% 29.69 in 10.0 mi SSE 5.8 mph - N/A   Overcast
10:55 PM 51.8 °F - 46.4 °F 82% 29.69 in 10.0 mi SSE 6.9 mph - N/A   Overcast
11:15 PM 53.6 °F - 46.4 °F 77% 29.68 in 10.0 mi SSE 5.8 mph - N/A   Overcast
11:35 PM 53.6 °F - 46.4 °F 77% 29.68 in 10.0 mi SSE 5.8 mph - N/A   Overcast
11:55 PM 53.6 °F - 46.4 °F 77% 29.67 in 10.0 mi SSE 5.8 mph - N/A   Overcast